Regional Weather Roundup
Issued by NWS

Home | Current Version | Previous Version | Graphics & Text | Print | Product List | Glossary On
Versions: 1 2 3 4 5 6 7 8 9 10 11 12 13 14 15 16 17 18 19 20 21 22 23 24 25 26 27 28 29 30 31 32 33 34 35 36 37 38 39 40 41 42 43 44 45 46 47 48 49 50
000
ASUS43 KBIS 280710
RWRND

NORTH DAKOTA REGIONAL WEATHER ROUNDUP
NATIONAL WEATHER SERVICE BISMARCK ND
200 AM CDT FRI APR 28 2017

NOTE: "FAIR" INDICATES FEW OR NO CLOUDS BELOW 12,000 FEET WITH NO
SIGNIFICANT WEATHER AND/OR OBSTRUCTIONS TO VISIBILITY.


NDZ001>003-009>011-017-280800-
NORTHWEST NORTH DAKOTA

CITY           SKY/WX    TMP DP  RH WIND       PRES   REMARKS
WILLISTON      FAIR      31  19  61 CALM      29.89R
MINOT          FAIR      28  23  81 N3        29.89R
MINOT AFB      CLEAR     32  26  78 N3        29.89R
$$

NDZ018>021-031>035-040>046-280800-
SOUTHWEST NORTH DAKOTA

CITY           SKY/WX    TMP DP  RH WIND       PRES   REMARKS
BISMARCK       FAIR      33  27  78 E8        29.90R
DICKINSON      FAIR      31  16  54 E6        29.83R
GARRISON         N/A     31  24  75 CALM      29.89R
HETTINGER ARPT CLEAR     30  23  75 E8        29.84R
$$

NDZ004>008-012>016-024-026-027-054-280800-
NORTHEAST NORTH DAKOTA

CITY           SKY/WX    TMP DP  RH WIND       PRES   REMARKS
GRAND FORKS    PTCLDY    32  29  88 W8        29.84S
GRND FRKS AFB  PTCLDY    30  26  87 NW6       29.85S
DEVILS LAKE    FAIR      30  28  92 NW6       29.87S
$$

NDZ022-023-025-028>030-036>039-047>053-280800-
SOUTHEAST NORTH DAKOTA

CITY           SKY/WX    TMP DP  RH WIND       PRES   REMARKS
FARGO          CLEAR     32  27  81 N12       29.83S
JAMESTOWN      FAIR      32  29  88 CALM      29.85R
$$





USA.gov is the U.S. government's official web portal to all federal, state and local government web resources and services.